Simultaneous Nadir Overpasses (SNOs) Predictions

Prediction of SNOs between AQUA and GOES-15 Satellite Orbit:

Table of predicted SNOs for the next 14.0 days since TLE Epoch: 7/4/2014
Index Date Time (AQUA) AQUA Lat,Lon GOES-15 Lat,Lon Distance(km) Time Diff (sec)
1 07/05/2014 22:29:22 0.49,-133.47 0.12,-135.35 213.11 80
2 07/06/2014 10:50:38 0.57,-138.63 -0.13,-135.33 375.08 80
3 07/08/2014 10:38:26 -0.03,-135.67 -0.13,-135.29 43.82 80
4 07/10/2014 10:26:15 -0.70,-132.72 -0.13,-135.24 286.75 80
5 07/10/2014 22:47:39 -0.42,-137.91 0.15,-135.23 305.14 80
6 07/12/2014 22:35:27 0.21,-134.96 0.15,-135.17 24.69 80
7 07/14/2014 22:23:14 0.80,-131.99 0.15,-135.11 354.17 80
8 07/15/2014 10:44:30 0.25,-137.15 -0.16,-135.09 234.60 80
9 07/17/2014 10:32:17 -0.35,-134.19 -0.16,-135.02 94.61 80
10 07/17/2014 22:53:41 -0.75,-139.38 0.18,-135.00 497.60 80




NCC Satellite Simultaneous Nadir Overpasses (SNOs) Prediction Service
